Simultaneous Nadir Overpasses (SNOs) Predictions

Prediction of SNOs between METOP-B and TERRA Satellite Orbit:

Table of predicted SNOs for the next 14.0 days since TLE Epoch: 7/13/2013
Index Date (METOP-B) Time (METOP-B) Lat,Lon (METOP-B) SZA (METOP-B ) Date (TERRA) Time (TERRA) Lat,Lon (TERRA) SZA (TERRA ) Distance(km) Time Diff (sec)
1 07/15/2013 01:18:42 -81.30, 27.29 117.51 07/15/2013 01:19:23 -81.30, 27.29 117.49 0.04 41
2 07/15/2013 02:09:22 81.30,-165.06 62.54 07/15/2013 02:08:49 81.30,-165.01 62.53 0.99 33
3 07/17/2013 20:53:03 -81.30, 93.68 117.05 07/17/2013 20:53:35 -81.30, 93.79 117.02 1.95 32
4 07/17/2013 21:43:42 81.31, -98.35 63.04 07/17/2013 21:43:01 81.30, -98.54 62.99 3.13 41
5 07/20/2013 16:27:22 -81.30, 160.32 116.52 07/20/2013 16:27:46 -81.30, 160.17 116.53 2.63 24
6 07/
